STARLINK-34496

导读

STARLINK-34496是美国太空探索技术公司(SpaceX)星链互联网卫星项目中的一颗卫星,于2025年6月23日发射升空,隶属于美国。星链项目旨在构建全球卫星互联网星座,为全球范围内用户提供高速低延迟的宽带互联网服务,这颗卫星是星链低轨星座部署过程中的组成部分,服务于项目全球覆盖的建设目标。

基本信息
目录编号:
64476
目录名称:
STARLINK-34496
国际标识:
2025-133E
轨道中心:
EARTH
卫星名称:
STARLINK-34496
卫星全名:
STARLINK-34496
卫星状态:
在轨 (已飞行438 天)
发射日期:
2025-06-23 UTC
国别 :
美国 (US)
星等 :
--
轨道信息
数据来源 国际轨道数据
星历时间: 2026-09-04T03:08:01+0800
10小时前
查看轨道信息
半长轴: 6840.898km
偏心率: 0.0001197
轨道倾角: 53.160°
近地点辐角 92.034°
升交点赤经 4.101°
平近点角 268.080°
近地点: 461.942km
远地点: 463.58km
周期: 93.849分钟
每日圈数: 15.343808
详细信息
使用方式:
暂无
2D轨道图
3D轨道图
轨道高度分析图
轨道倾角分析图
轨道综合分析图
查看轨道综合分析图
交会数据列表
事件ID 空间交会对象 最接近时刻(TCA) 交会距离 交会风险概率(CRP) 交会风险指数(CRI) 操作
CDM_260904-194105-996206-447621
2026-09-04T
19:41:00+0000
0.532 km
远距离
9.18821E-5 中风险 0.74
CDM_260905-001906-422206-447621
2026-09-05T
00:19:54+0000
0.686 km
远距离
5.705898E-5 中风险 0.7
CDM_260905-010905-996206-447621
2026-09-05T
01:09:16+0000
1.139 km
极远距离
8.136847E-6 低风险 0.53
CDM_260905-015306-422206-447621
2026-09-05T
01:53:42+0000
1.470 km
极远距离
4.486324E-6 低风险 0.48
CDM_260904-234506-447606-629221
2026-09-04T
23:45:56+0000
1.479 km
极远距离
4.442149E-6 低风险 0.48
CDM_260904-224105-180806-447621
2026-09-04T
22:41:19+0000
2.496 km
极远距离
1.418618E-6 低风险 0.38
CDM_260904-202005-180806-447621
2026-09-04T
20:20:40+0000
2.568 km
极远距离
1.353018E-6 低风险 0.38
CDM_260904-224606-422206-447621
2026-09-04T
22:46:07+0000
2.365 km
极远距离
1.291347E-6 低风险 0.37
CDM_260905-051405-081706-447621
2026-09-05T
05:14:15+0000
2.580 km
极远距离
1.122011E-6 低风险 0.36
CDM_260903-022605-238306-447621
2026-09-03T
02:26:55+0000
2.721 km
极远距离
1.083601E-6 低风险 0.36